Time,TemperatureF,DewpointF,PressureIn,WindDirection,WindDirectionDegrees,WindSpeedMPH,WindSpeedGustMPH,Humidity,HourlyPrecipIn,Conditions,Clouds,dailyrainin,SolarRadiationWatts/m^2,SoftwareType,DateUTC
2013-04-03 00:00:00,43.3,25.9,30.03,WNW,292,15.0,15.0,50,0.00,BKN,,0.00,0.0,WeatherDisplay:10.37,2013-04-03 04:00:00,
2013-04-03 00:05:00,43.3,25.9,30.03,WNW,292,12.7,12.7,50,0.00,BKN,,0.00,0.0,WeatherDisplay:10.37,2013-04-03 04:05:00,
2013-04-03 00:10:00,43.3,25.9,30.03,West,270,12.8,12.8,50,0.00,BKN,,0.00,0.0,WeatherDisplay:10.37,2013-04-03 04:10:00,
2013-04-03 00:15:00,43.3,25.9,30.03,WNW,292,15.0,15.0,50,0.00,BKN,,0.00,0.0,WeatherDisplay:10.37,2013-04-03 04:15:00,
2013-04-03 00:20:00,43.3,25.9,30.03,WNW,292,9.2,9.2,50,0.00,BKN,,0.00,0.0,WeatherDisplay:10.37,2013-04-03 04:20:00,
2013-04-03 00:25:00,43.3,25.9,30.03,WNW,292,10.4,10.4,50,0.00,BKN,,0.00,0.0,WeatherDisplay:10.37,2013-04-03 04:25:00,
2013-04-03 00:30:00,43.3,25.9,30.03,West,270,10.4,10.4,50,0.00,BKN,,0.00,0.0,WeatherDisplay:10.37,2013-04-03 04:30:00,
2013-04-03 00:35:00,43.3,25.9,30.03,WNW,292,12.7,12.7,50,0.00,BKN,,0.00,0.0,WeatherDisplay:10.37,2013-04-03 04:35:00,
2013-04-03 00:40:00,43.3,25.9,30.03,WNW,292,13.8,13.8,50,0.00,BKN,,0.00,0.0,WeatherDisplay:10.37,2013-04-03 04:40:00,
2013-04-03 00:45:00,43.3,25.9,30.03,WNW,292,11.5,11.5,50,0.00,BKN,,0.00,0.0,WeatherDisplay:10.37,2013-04-03 04:45:00,
2013-04-03 00:50:00,43.3,25.9,30.03,NW,315,11.2,11.2,50,0.00,BKN,,0.00,0.0,WeatherDisplay:10.37,2013-04-03 04:50:00,
2013-04-03 00:55:00,43.3,25.9,30.03,WSW,248,10.7,10.7,50,0.00,BKN,,0.00,0.0,WeatherDisplay:10.37,2013-04-03 04:55:00,
2013-04-03 01:00:00,43.3,25.9,30.03,SW,225,10.2,10.2,50,0.00,BKN,,0.00,0.0,WeatherDisplay:10.37,2013-04-03 05:00:00,
2013-04-03 01:05:00,43.3,25.9,30.03,WNW,292,10.4,10.4,50,0.00,-SN,,0.00,0.0,WeatherDisplay:10.37,2013-04-03 05:05:00,
2013-04-03 01:10:00,43.3,25.9,30.00,WNW,292,17.0,17.0,50,0.00,-SN,,0.00,0.0,WeatherDisplay:10.37,2013-04-03 05:10:00,
2013-04-03 01:15:00,43.3,25.9,30.00,West,270,15.0,15.0,50,0.00,-SN,,0.00,0.0,WeatherDisplay:10.37,2013-04-03 05:15:00,
2013-04-03 01:20:00,43.3,25.9,30.00,WNW,292,17.3,17.3,50,0.00,-SN,,0.00,0.0,WeatherDisplay:10.37,2013-04-03 05:20:00,
2013-04-03 01:25:00,43.3,25.9,30.03,WNW,292,10.7,10.7,50,0.00,-SN,,0.00,0.0,WeatherDisplay:10.37,2013-04-03 05:25:00,
2013-04-03 01:30:00,43.3,25.9,30.03,West,270,17.3,17.3,50,0.00,-SN,,0.00,0.0,WeatherDisplay:10.37,2013-04-03 05:30:00,
2013-04-03 01:35:00,43.3,25.9,30.03,West,270,12.5,12.5,50,0.00,-SN,,0.00,0.0,WeatherDisplay:10.37,2013-04-03 05:35:00,
2013-04-03 01:40:00,43.3,25.9,30.03,WNW,292,15.0,15.0,50,0.00,-SN,,0.00,0.0,WeatherDisplay:10.37,2013-04-03 05:40:00,
2013-04-03 01:45:00,43.3,25.9,30.03,NW,315,10.4,10.4,50,0.00,-SN,,0.00,0.0,WeatherDisplay:10.37,2013-04-03 05:45:00,
2013-04-03 01:50:00,43.3,25.9,30.03,WNW,292,19.9,19.9,50,0.00,-SN,,0.00,0.0,WeatherDisplay:10.37,2013-04-03 05:50:00,
2013-04-03 01:56:00,43.3,25.9,30.03,West,270,12.7,12.7,50,0.00,-SN,,0.00,0.0,WeatherDisplay:10.37,2013-04-03 05:56:00,
2013-04-03 02:01:00,43.3,25.9,30.03,WNW,292,15.0,15.0,50,0.00,-SN,,0.00,0.0,WeatherDisplay:10.37,2013-04-03 06:01:00,
2013-04-03 02:05:00,43.3,25.9,30.03,WNW,292,10.5,10.5,50,0.00,-SN,,0.00,0.0,WeatherDisplay:10.37,2013-04-03 06:05:00,
2013-04-03 02:11:00,43.3,25.9,30.03,West,270,10.4,10.4,50,0.00,-SN,,0.00,0.0,WeatherDisplay:10.37,2013-04-03 06:11:00,
2013-04-03 02:16:00,43.3,25.9,30.03,WNW,292,19.6,19.6,50,0.00,-SN,,0.00,0.0,WeatherDisplay:10.37,2013-04-03 06:16:00,
2013-04-03 02:21:00,43.3,25.9,30.03,WNW,292,15.0,15.0,50,0.00,-SN,,0.00,0.0,WeatherDisplay:10.37,2013-04-03 06:21:00,
2013-04-03 02:26:00,43.3,25.9,30.03,West,270,12.7,12.7,50,0.00,-SN,,0.00,0.0,WeatherDisplay:10.37,2013-04-03 06:26:00,
2013-04-03 02:31:00,43.3,25.9,30.03,West,270,13.8,13.8,50,0.00,-SN,,0.00,0.0,WeatherDisplay:10.37,2013-04-03 06:31:00,
2013-04-03 02:36:00,43.3,25.9,30.03,WSW,248,15.0,15.0,50,0.00,-SN,,0.00,0.0,WeatherDisplay:10.37,2013-04-03 06:36:00,
2013-04-03 02:41:00,43.3,25.9,30.03,West,270,15.0,15.0,50,0.00,-SN,,0.00,0.0,WeatherDisplay:10.37,2013-04-03 06:41:00,
2013-04-03 02:46:00,43.3,25.9,30.03,WNW,292,17.3,17.3,50,0.00,-SN,,0.00,0.0,WeatherDisplay:10.37,2013-04-03 06:46:00,
2013-04-03 02:51:00,43.3,25.9,30.03,WNW,292,12.7,12.7,50,0.00,-SN,,0.00,0.0,WeatherDisplay:10.37,2013-04-03 06:51:00,
2013-04-03 02:56:00,43.3,25.9,30.03,West,270,9.8,9.8,50,0.00,-SN,,0.00,0.0,WeatherDisplay:10.37,2013-04-03 06:56:00,
2013-04-03 03:01:00,43.3,25.9,30.03,WNW,292,15.0,15.0,50,0.00,BKN,,0.00,0.0,WeatherDisplay:10.37,2013-04-03 07:01:00,
2013-04-03 03:06:00,43.3,25.9,30.03,West,270,11.5,11.5,50,0.00,BKN,,0.00,0.0,WeatherDisplay:10.37,2013-04-03 07:06:00,
2013-04-03 03:11:00,43.3,25.9,30.03,WSW,248,12.7,12.7,50,0.00,BKN,,0.00,0.0,WeatherDisplay:10.37,2013-04-03 07:11:00,
2013-04-03 03:16:00,43.3,25.9,30.03,West,270,13.0,13.0,50,0.00,BKN,,0.00,0.0,WeatherDisplay:10.37,2013-04-03 07:16:00,
2013-04-03 03:21:00,43.3,25.9,30.03,WNW,292,12.7,12.7,50,0.00,BKN,,0.00,0.0,WeatherDisplay:10.37,2013-04-03 07:21:00,
2013-04-03 03:27:00,43.3,25.9,30.00,WNW,292,17.3,17.3,50,0.00,BKN,,0.00,0.0,WeatherDisplay:10.37,2013-04-03 07:27:00,
2013-04-03 03:32:00,43.3,25.9,30.00,NW,315,10.4,10.4,50,0.00,BKN,,0.00,0.0,WeatherDisplay:10.37,2013-04-03 07:32:00,
2013-04-03 03:37:00,43.3,25.9,30.00,West,270,19.6,19.6,50,0.00,BKN,,0.00,0.0,WeatherDisplay:10.37,2013-04-03 07:37:00,
2013-04-03 03:42:00,43.3,25.9,30.00,WNW,292,19.7,19.7,50,0.00,BKN,,0.00,0.0,WeatherDisplay:10.37,2013-04-03 07:42:00,
2013-04-03 03:47:00,43.3,25.9,30.00,WNW,292,13.8,13.8,50,0.00,BKN,,0.00,0.0,WeatherDisplay:10.37,2013-04-03 07:47:00,
2013-04-03 03:52:00,43.3,25.9,30.03,West,270,17.3,17.3,50,0.00,BKN,,0.00,0.0,WeatherDisplay:10.37,2013-04-03 07:52:00,
2013-04-03 03:57:00,43.3,25.9,30.03,WNW,292,17.3,17.3,50,0.00,BKN,,0.00,0.0,WeatherDisplay:10.37,2013-04-03 07:57:00,
2013-04-03 04:02:00,43.3,25.9,30.03,WNW,292,13.8,13.8,50,0.00,BKN,,0.00,0.0,WeatherDisplay:10.37,2013-04-03 08:02:00,
2013-04-03 04:07:00,43.3,25.9,30.03,West,270,15.0,15.0,50,0.00,BKN,,0.00,0.0,WeatherDisplay:10.37,2013-04-03 08:07:00,
2013-04-03 04:12:00,43.3,25.9,30.03,WNW,292,17.3,17.3,50,0.00,BKN,,0.00,0.0,WeatherDisplay:10.37,2013-04-03 08:12:00,
2013-04-03 04:17:00,43.3,25.9,30.03,West,270,17.3,17.3,50,0.00,BKN,,0.00,0.0,WeatherDisplay:10.37,2013-04-03 08:17:00,
2013-04-03 04:22:00,43.3,25.9,30.03,WSW,248,10.9,10.9,50,0.00,BKN,,0.00,0.0,WeatherDisplay:10.37,2013-04-03 08:22:00,
2013-04-03 04:27:00,43.3,25.9,30.03,WNW,292,11.5,11.5,50,0.00,BKN,,0.00,0.0,WeatherDisplay:10.37,2013-04-03 08:27:00,
2013-04-03 04:32:00,43.3,25.9,30.03,WNW,292,12.3,12.3,50,0.00,BKN,,0.00,0.0,WeatherDisplay:10.37,2013-04-03 08:32:00,
2013-04-03 04:37:00,43.3,25.9,30.03,WNW,292,14.7,14.7,50,0.00,BKN,,0.00,0.0,WeatherDisplay:10.37,2013-04-03 08:37:00,
2013-04-03 04:42:00,43.3,25.9,30.03,West,270,13.8,13.8,50,0.00,BKN,,0.00,0.0,WeatherDisplay:10.37,2013-04-03 08:42:00,
2013-04-03 04:47:00,43.3,25.9,30.03,West,270,9.8,9.8,50,0.00,BKN,,0.00,0.0,WeatherDisplay:10.37,2013-04-03 08:47:00,
2013-04-03 04:52:00,43.3,25.9,30.06,West,270,15.0,15.0,50,0.00,BKN,,0.00,0.0,WeatherDisplay:10.37,2013-04-03 08:52:00,
2013-04-03 04:57:00,43.3,25.9,30.06,WNW,292,13.8,13.8,50,0.00,BKN,,0.00,0.0,WeatherDisplay:10.37,2013-04-03 08:57:00,
2013-04-03 05:02:00,43.3,25.9,30.06,WNW,292,15.0,15.0,50,0.00,SCT,,0.00,0.0,WeatherDisplay:10.37,2013-04-03 09:02:00,
2013-04-03 05:07:00,43.3,25.9,30.06,WNW,292,12.1,12.1,50,0.00,SCT,,0.00,0.0,WeatherDisplay:10.37,2013-04-03 09:07:00,
2013-04-03 05:12:00,43.3,25.9,30.06,WNW,292,12.7,12.7,50,0.00,SCT,,0.00,0.0,WeatherDisplay:10.37,2013-04-03 09:12:00,
2013-04-03 05:17:00,43.3,25.9,30.06,West,270,12.7,12.7,50,0.00,SCT,,0.00,0.0,WeatherDisplay:10.37,2013-04-03 09:17:00,
2013-04-03 05:22:00,43.3,25.9,30.06,West,270,13.8,13.8,50,0.00,SCT,,0.00,0.0,WeatherDisplay:10.37,2013-04-03 09:22:00,
2013-04-03 05:27:00,43.3,25.9,30.06,WNW,292,13.0,13.0,50,0.00,SCT,,0.00,0.0,WeatherDisplay:10.37,2013-04-03 09:27:00,
2013-04-03 05:32:00,43.3,25.9,30.06,West,270,9.2,9.2,50,0.00,SCT,,0.00,0.0,WeatherDisplay:10.37,2013-04-03 09:32:00,
2013-04-03 05:37:00,43.3,25.9,30.06,WNW,292,13.8,13.8,50,0.00,SCT,,0.00,0.0,WeatherDisplay:10.37,2013-04-03 09:37:00,
2013-04-03 05:42:00,43.3,25.9,30.06,WNW,292,11.5,11.5,50,0.00,SCT,,0.00,0.0,WeatherDisplay:10.37,2013-04-03 09:42:00,
2013-04-03 05:48:00,43.3,25.9,30.06,West,270,10.4,10.4,50,0.00,SCT,,0.00,0.0,WeatherDisplay:10.37,2013-04-03 09:48:00,
2013-04-03 05:53:00,43.3,25.9,30.06,WNW,292,15.0,15.0,50,0.00,SCT,,0.00,0.0,WeatherDisplay:10.37,2013-04-03 09:53:00,
2013-04-03 05:58:00,43.3,25.9,30.06,West,270,16.1,16.1,50,0.00,SCT,,0.00,0.0,WeatherDisplay:10.37,2013-04-03 09:58:00,
2013-04-03 06:03:00,43.3,25.9,30.06,West,270,13.7,13.7,50,0.00,-SN,,0.00,0.0,WeatherDisplay:10.37,2013-04-03 10:03:00,
2013-04-03 06:08:00,43.3,25.9,30.06,West,270,13.0,13.0,50,0.00,-SN,,0.00,0.0,WeatherDisplay:10.37,2013-04-03 10:08:00,
2013-04-03 06:13:00,43.3,25.9,30.06,WNW,292,12.7,12.7,50,0.00,-SN,,0.00,0.0,WeatherDisplay:10.37,2013-04-03 10:13:00,
2013-04-03 06:18:00,43.3,25.9,30.06,West,270,17.3,17.3,50,0.00,-SN,,0.00,0.0,WeatherDisplay:10.37,2013-04-03 10:18:00,
2013-04-03 06:23:00,43.3,25.9,30.06,West,270,10.4,10.4,50,0.00,-SN,,0.00,0.0,WeatherDisplay:10.37,2013-04-03 10:23:00,
2013-04-03 06:28:00,43.3,25.9,30.06,West,270,15.0,15.0,50,0.00,-SN,,0.00,0.0,WeatherDisplay:10.37,2013-04-03 10:28:00,
2013-04-03 06:33:00,43.3,25.9,30.06,West,270,12.7,12.7,50,0.00,-SN,,0.00,0.0,WeatherDisplay:10.37,2013-04-03 10:33:00,
2013-04-03 06:38:00,43.3,25.9,30.09,West,270,5.8,5.8,50,0.00,-SN,,0.00,0.0,WeatherDisplay:10.37,2013-04-03 10:38:00,
2013-04-03 06:43:00,43.3,25.9,30.09,West,270,12.7,12.7,50,0.00,-SN,,0.00,0.0,WeatherDisplay:10.37,2013-04-03 10:43:00,
2013-04-03 06:48:00,43.3,25.9,30.09,WNW,292,10.4,10.4,50,0.00,-SN,,0.00,0.0,WeatherDisplay:10.37,2013-04-03 10:48:00,
2013-04-03 06:53:00,43.3,25.9,30.09,WNW,292,10.5,10.5,50,0.00,-SN,,0.00,0.0,WeatherDisplay:10.37,2013-04-03 10:53:00,
2013-04-03 06:58:00,43.3,25.9,30.09,WNW,292,10.4,10.4,50,0.00,-SN,,0.00,0.0,WeatherDisplay:10.37,2013-04-03 10:58:00,
2013-04-03 07:03:00,43.3,25.9,30.09,WNW,292,15.0,15.0,50,0.00,BKN,,0.00,0.0,WeatherDisplay:10.37,2013-04-03 11:03:00,
2013-04-03 07:08:00,43.3,25.9,30.09,WNW,292,11.5,11.5,50,0.00,BKN,,0.00,0.0,WeatherDisplay:10.37,2013-04-03 11:08:00,
2013-04-03 07:13:00,43.3,25.9,30.09,West,270,15.0,15.0,50,0.00,BKN,,0.00,0.0,WeatherDisplay:10.37,2013-04-03 11:13:00,
2013-04-03 07:18:00,43.3,25.9,30.09,WNW,292,12.7,12.7,50,0.00,BKN,,0.00,0.0,WeatherDisplay:10.37,2013-04-03 11:18:00,
2013-04-03 07:23:00,43.3,25.9,30.09,West,270,12.7,12.7,50,0.00,BKN,,0.00,0.0,WeatherDisplay:10.37,2013-04-03 11:23:00,
2013-04-03 07:28:00,43.3,25.9,30.09,West,270,12.7,12.7,50,0.00,BKN,,0.00,0.0,WeatherDisplay:10.37,2013-04-03 11:28:00,
2013-04-03 07:33:00,43.3,25.9,30.09,West,270,8.1,8.5,50,0.00,BKN,,0.00,0.0,WeatherDisplay:10.37,2013-04-03 11:33:00,
2013-04-03 07:38:00,43.3,25.9,30.12,West,270,10.4,10.4,50,0.00,BKN,,0.00,0.0,WeatherDisplay:10.37,2013-04-03 11:38:00,
2013-04-03 07:43:00,43.3,25.9,30.12,WSW,248,16.1,16.1,50,0.00,BKN,,0.00,0.0,WeatherDisplay:10.37,2013-04-03 11:43:00,
2013-04-03 07:48:00,43.3,25.9,30.12,West,270,15.4,15.4,50,0.00,BKN,,0.00,0.0,WeatherDisplay:10.37,2013-04-03 11:48:00,
2013-04-03 07:53:00,43.3,25.9,30.12,WNW,292,12.8,12.8,50,0.00,BKN,,0.00,0.0,WeatherDisplay:10.37,2013-04-03 11:53:00,
2013-04-03 07:58:00,43.3,25.9,30.12,WSW,248,12.7,12.7,50,0.00,BKN,,0.00,0.0,WeatherDisplay:10.37,2013-04-03 11:58:00,
2013-04-03 08:03:00,43.3,25.9,30.12,WSW,248,12.7,12.7,50,0.00,-SN,,0.00,0.0,WeatherDisplay:10.37,2013-04-03 12:03:00,
2013-04-03 08:08:00,43.3,25.9,30.12,WNW,292,17.3,17.3,50,0.00,-SN,,0.00,0.0,WeatherDisplay:10.37,2013-04-03 12:08:00,
2013-04-03 08:13:00,43.3,25.9,30.12,West,270,12.7,12.7,50,0.00,-SN,,0.00,0.0,WeatherDisplay:10.37,2013-04-03 12:13:00,
2013-04-03 08:18:00,43.3,25.9,30.12,West,270,10.5,10.5,50,0.00,-SN,,0.00,0.0,WeatherDisplay:10.37,2013-04-03 12:18:00,
2013-04-03 08:23:00,43.3,25.9,30.12,WNW,292,15.0,15.0,50,0.00,-SN,,0.00,0.0,WeatherDisplay:10.37,2013-04-03 12:23:00,
2013-04-03 08:28:00,43.3,25.9,30.12,WNW,292,16.1,16.1,50,0.00,-SN,,0.00,0.0,WeatherDisplay:10.37,2013-04-03 12:28:00,
2013-04-03 08:33:00,43.3,25.9,30.12,WNW,292,17.3,17.3,50,0.00,-SN,,0.00,0.0,WeatherDisplay:10.37,2013-04-03 12:33:00,
2013-04-03 08:38:00,43.3,25.9,30.12,WNW,292,15.4,15.4,50,0.00,-SN,,0.00,0.0,WeatherDisplay:10.37,2013-04-03 12:38:00,
2013-04-03 08:43:00,43.3,25.9,30.12,WNW,292,10.4,10.4,50,0.00,-SN,,0.00,0.0,WeatherDisplay:10.37,2013-04-03 12:43:00,
2013-04-03 08:48:00,43.3,25.9,30.12,West,270,13.8,13.8,50,0.00,-SN,,0.00,0.0,WeatherDisplay:10.37,2013-04-03 12:48:00,
2013-04-03 08:53:00,43.3,25.9,30.12,WSW,248,12.7,12.7,50,0.00,-SN,,0.00,0.0,WeatherDisplay:10.37,2013-04-03 12:53:00,
2013-04-03 08:58:00,43.3,25.9,30.12,WNW,292,12.7,12.7,50,0.00,-SN,,0.00,0.0,WeatherDisplay:10.37,2013-04-03 12:58:00,
2013-04-03 09:03:00,43.3,25.9,30.12,West,270,10.9,10.9,50,0.00,BKN,,0.00,0.0,WeatherDisplay:10.37,2013-04-03 13:03:00,
2013-04-03 09:08:00,43.3,25.9,30.12,WNW,292,15.4,15.4,50,0.00,BKN,,0.00,0.0,WeatherDisplay:10.37,2013-04-03 13:08:00,
2013-04-03 09:13:00,43.3,25.9,30.12,WNW,292,14.5,14.5,50,0.00,BKN,,0.00,0.0,WeatherDisplay:10.37,2013-04-03 13:13:00,
2013-04-03 09:18:00,43.3,25.9,30.12,West,270,17.3,17.3,50,0.00,BKN,,0.00,0.0,WeatherDisplay:10.37,2013-04-03 13:18:00,
2013-04-03 09:23:00,43.3,25.9,30.12,WNW,292,15.0,15.0,50,0.00,BKN,,0.00,0.0,WeatherDisplay:10.37,2013-04-03 13:23:00,
2013-04-03 09:28:00,43.3,25.9,30.12,WNW,292,17.3,17.3,50,0.00,BKN,,0.00,0.0,WeatherDisplay:10.37,2013-04-03 13:28:00,
2013-04-03 09:33:00,43.3,25.9,30.12,WNW,292,16.1,16.1,50,0.00,BKN,,0.00,0.0,WeatherDisplay:10.37,2013-04-03 13:33:00,
2013-04-03 09:38:00,43.3,25.9,30.12,WNW,292,19.9,19.9,50,0.00,BKN,,0.00,0.0,WeatherDisplay:10.37,2013-04-03 13:38:00,
2013-04-03 09:43:00,43.3,25.9,30.12,WNW,292,13.8,13.8,50,0.00,BKN,,0.00,0.0,WeatherDisplay:10.37,2013-04-03 13:43:00,
2013-04-03 09:48:00,43.3,25.9,30.12,West,270,17.3,17.3,50,0.00,BKN,,0.00,0.0,WeatherDisplay:10.37,2013-04-03 13:48:00,
2013-04-03 09:53:00,43.3,25.9,30.12,West,270,18.4,18.4,50,0.00,BKN,,0.00,0.0,WeatherDisplay:10.37,2013-04-03 13:53:00,
2013-04-03 09:58:00,43.3,25.9,30.12,WNW,292,12.8,12.8,50,0.00,BKN,,0.00,0.0,WeatherDisplay:10.37,2013-04-03 13:58:00,
2013-04-03 10:03:00,43.3,25.9,30.12,WNW,292,13.7,13.7,50,0.00,-SN,,0.00,0.0,WeatherDisplay:10.37,2013-04-03 14:03:00,
2013-04-03 10:08:00,43.3,25.9,30.12,WNW,292,11.5,11.5,50,0.00,-SN,,0.00,0.0,WeatherDisplay:10.37,2013-04-03 14:08:00,
2013-04-03 10:13:00,43.3,25.9,30.12,West,270,19.2,19.2,50,0.00,-SN,,0.00,0.0,WeatherDisplay:10.37,2013-04-03 14:13:00,
2013-04-03 10:18:00,43.3,25.9,30.12,West,270,17.6,17.6,50,0.00,-SN,,0.00,0.0,WeatherDisplay:10.37,2013-04-03 14:18:00,
2013-04-03 10:23:00,43.3,25.9,30.09,West,270,18.7,18.7,50,0.00,-SN,,0.00,0.0,WeatherDisplay:10.37,2013-04-03 14:23:00,
2013-04-03 10:28:00,43.3,25.9,30.09,WNW,292,14.0,14.0,50,0.00,-SN,,0.00,0.0,WeatherDisplay:10.37,2013-04-03 14:28:00,
2013-04-03 10:33:00,43.3,25.9,30.09,WNW,292,9.8,9.8,50,0.00,-SN,,0.00,0.0,WeatherDisplay:10.37,2013-04-03 14:33:00,
2013-04-03 10:38:00,43.3,25.9,30.12,NNW,338,10.4,10.4,50,0.00,-SN,,0.00,0.0,WeatherDisplay:10.37,2013-04-03 14:38:00,
2013-04-03 10:43:00,43.3,25.9,30.12,WSW,248,17.6,17.6,50,0.00,-SN,,0.00,0.0,WeatherDisplay:10.37,2013-04-03 14:43:00,
2013-04-03 10:48:00,43.3,25.9,30.12,NW,315,15.0,15.0,50,0.00,-SN,,0.00,0.0,WeatherDisplay:10.37,2013-04-03 14:48:00,
2013-04-03 10:53:00,43.3,25.9,30.09,WNW,292,17.5,17.5,50,0.00,-SN,,0.00,0.0,WeatherDisplay:10.37,2013-04-03 14:53:00,
2013-04-03 10:59:00,43.3,25.9,30.09,WNW,292,10.2,10.2,50,0.00,-SN,,0.00,0.0,WeatherDisplay:10.37,2013-04-03 14:59:00,
2013-04-03 11:04:00,43.3,25.9,30.09,WNW,292,15.0,15.0,50,0.00,-SN,,0.00,0.0,WeatherDisplay:10.37,2013-04-03 15:04:00,
2013-04-03 11:09:00,43.3,25.9,30.12,NW,315,15.2,15.2,50,0.00,-SN,,0.00,0.0,WeatherDisplay:10.37,2013-04-03 15:09:00,
2013-04-03 11:14:00,43.3,25.9,30.12,NNW,338,13.8,13.8,50,0.00,-SN,,0.00,0.0,WeatherDisplay:10.37,2013-04-03 15:14:00,
2013-04-03 11:19:00,43.3,25.9,30.12,WNW,292,14.3,14.3,50,0.00,-SN,,0.00,0.0,WeatherDisplay:10.37,2013-04-03 15:19:00,
2013-04-03 11:24:00,43.3,25.9,30.12,WSW,248,15.0,15.0,50,0.00,-SN,,0.00,600.0,WeatherDisplay:10.37,2013-04-03 15:24:00,
2013-04-03 11:29:00,43.3,25.9,30.12,WNW,292,20.7,20.7,50,0.00,-SN,,0.00,0.0,WeatherDisplay:10.37,2013-04-03 15:29:00,
2013-04-03 11:34:00,43.3,25.9,30.12,NW,315,16.1,16.1,50,0.00,-SN,,0.00,0.0,WeatherDisplay:10.37,2013-04-03 15:34:00,
2013-04-03 11:39:00,43.3,25.9,30.15,WNW,292,13.8,13.8,50,0.00,-SN,,0.00,0.0,WeatherDisplay:10.37,2013-04-03 15:39:00,
2013-04-03 11:44:00,43.3,25.9,30.15,NW,315,7.4,7.4,50,0.00,-SN,,0.00,0.0,WeatherDisplay:10.37,2013-04-03 15:44:00,
2013-04-03 11:49:00,43.3,25.9,30.15,WNW,292,6.9,6.9,50,0.00,-SN,,0.00,0.0,WeatherDisplay:10.37,2013-04-03 15:49:00,
2013-04-03 11:54:00,43.3,25.9,30.15,WSW,248,15.2,15.2,50,0.00,-SN,,0.00,0.0,WeatherDisplay:10.37,2013-04-03 15:54:00,
2013-04-03 11:59:00,43.3,25.9,30.15,WNW,292,13.8,13.8,50,0.00,-SN,,0.00,0.0,WeatherDisplay:10.37,2013-04-03 15:59:00,
2013-04-03 12:04:00,43.3,25.9,30.15,West,270,6.9,6.9,50,0.00,OVC,,0.00,0.0,WeatherDisplay:10.37,2013-04-03 16:04:00,
2013-04-03 12:10:00,43.3,25.9,30.15,WNW,292,13.8,13.8,50,0.00,OVC,,0.00,0.0,WeatherDisplay:10.37,2013-04-03 16:10:00,
2013-04-03 12:15:00,43.3,25.9,30.15,West,270,12.7,12.7,50,0.00,OVC,,0.00,0.0,WeatherDisplay:10.37,2013-04-03 16:15:00,
2013-04-03 12:20:00,43.3,25.9,30.15,WNW,292,12.7,12.7,50,0.00,OVC,,0.00,0.0,WeatherDisplay:10.37,2013-04-03 16:20:00,
2013-04-03 12:25:00,43.3,25.9,30.15,WNW,292,15.0,15.0,50,0.00,OVC,,0.00,0.0,WeatherDisplay:10.37,2013-04-03 16:25:00,
2013-04-03 12:30:00,43.3,25.9,30.15,West,270,10.9,10.9,50,0.00,OVC,,0.00,300.0,WeatherDisplay:10.37,2013-04-03 16:30:00,
2013-04-03 12:35:00,43.3,25.9,30.15,NW,315,10.4,10.4,50,0.00,OVC,,0.00,0.0,WeatherDisplay:10.37,2013-04-03 16:35:00,
2013-04-03 12:40:00,43.3,25.9,30.15,WNW,292,21.5,21.5,50,0.00,OVC,,0.00,0.0,WeatherDisplay:10.37,2013-04-03 16:40:00,
2013-04-03 12:45:00,43.3,25.9,30.15,West,270,12.7,12.7,50,0.00,OVC,,0.00,0.0,WeatherDisplay:10.37,2013-04-03 16:45:00,
2013-04-03 12:50:00,43.3,25.9,30.15,WNW,292,19.6,19.6,50,0.00,OVC,,0.00,0.0,WeatherDisplay:10.37,2013-04-03 16:50:00,
2013-04-03 12:55:00,43.3,25.9,30.18,West,270,11.5,11.5,50,0.00,OVC,,0.00,0.0,WeatherDisplay:10.37,2013-04-03 16:55:00,
2013-04-03 13:00:00,43.3,25.9,30.18,NNW,338,12.7,12.7,50,0.00,OVC,,0.00,0.0,WeatherDisplay:10.37,2013-04-03 17:00:00,
2013-04-03 13:05:00,43.3,25.9,30.18,WNW,292,16.1,16.1,50,0.00,OVC,,0.00,0.0,WeatherDisplay:10.37,2013-04-03 17:05:00,
2013-04-03 13:10:00,43.3,25.9,30.18,NNW,338,12.3,12.3,50,0.00,OVC,,0.00,100.0,WeatherDisplay:10.37,2013-04-03 17:10:00,
2013-04-03 13:15:00,43.3,25.9,30.18,WNW,292,13.8,13.8,50,0.00,OVC,,0.00,0.0,WeatherDisplay:10.37,2013-04-03 17:15:00,
2013-04-03 13:20:00,43.3,25.9,30.18,WNW,292,13.0,13.0,50,0.00,OVC,,0.00,0.0,WeatherDisplay:10.37,2013-04-03 17:20:00,
2013-04-03 13:25:00,43.3,25.9,30.18,WNW,292,13.8,13.8,50,0.00,OVC,,0.00,0.0,WeatherDisplay:10.37,2013-04-03 17:25:00,
2013-04-03 13:30:00,43.3,25.9,30.18,WNW,292,10.0,10.0,50,0.00,OVC,,0.00,0.0,WeatherDisplay:10.37,2013-04-03 17:30:00,
2013-04-03 13:35:00,43.3,25.9,30.18,West,270,15.2,15.2,50,0.00,OVC,,0.00,0.0,WeatherDisplay:10.37,2013-04-03 17:35:00,
2013-04-03 13:40:00,43.3,25.9,30.18,WNW,292,17.3,17.3,50,0.00,OVC,,0.00,0.0,WeatherDisplay:10.37,2013-04-03 17:40:00,
2013-04-03 13:45:00,43.3,25.9,30.18,WNW,292,13.8,13.8,50,0.00,OVC,,0.00,0.0,WeatherDisplay:10.37,2013-04-03 17:45:00,
2013-04-03 13:50:00,43.3,25.9,30.18,WNW,292,12.7,12.7,50,0.00,OVC,,0.00,0.0,WeatherDisplay:10.37,2013-04-03 17:50:00,
2013-04-03 13:55:00,43.3,25.9,30.15,WNW,292,8.1,8.1,50,0.00,OVC,,0.00,0.0,WeatherDisplay:10.37,2013-04-03 17:55:00,
2013-04-03 14:00:00,43.3,25.9,30.15,WNW,292,12.7,12.7,50,0.00,OVC,,0.00,0.0,WeatherDisplay:10.37,2013-04-03 18:00:00,
2013-04-03 14:05:00,43.3,25.9,30.15,NW,315,17.3,17.3,50,0.00,BKN,,0.00,0.0,WeatherDisplay:10.37,2013-04-03 18:05:00,
2013-04-03 14:10:00,43.3,25.9,30.15,West,270,20.1,20.1,50,0.00,BKN,,0.00,0.0,WeatherDisplay:10.37,2013-04-03 18:10:00,
2013-04-03 14:16:00,43.3,25.9,30.15,WNW,292,17.0,17.0,50,0.00,BKN,,0.00,0.0,WeatherDisplay:10.37,2013-04-03 18:16:00,
2013-04-03 14:21:00,43.3,25.9,30.15,West,270,17.6,17.6,50,0.00,BKN,,0.00,0.0,WeatherDisplay:10.37,2013-04-03 18:21:00,
2013-04-03 14:26:00,43.3,25.9,30.18,WSW,248,28.6,28.6,50,0.00,BKN,,0.00,1100.0,WeatherDisplay:10.37,2013-04-03 18:26:00,
2013-04-03 14:31:00,43.3,25.9,30.18,WNW,292,24.2,24.2,50,0.00,BKN,,0.00,300.0,WeatherDisplay:10.37,2013-04-03 18:31:00,
2013-04-03 14:36:00,43.3,25.9,30.18,NW,315,18.4,18.4,50,0.00,BKN,,0.00,0.0,WeatherDisplay:10.37,2013-04-03 18:36:00,
2013-04-03 14:41:00,43.3,25.9,30.18,WNW,292,17.3,17.3,50,0.00,BKN,,0.00,0.0,WeatherDisplay:10.37,2013-04-03 18:41:00,
2013-04-03 14:47:00,43.3,25.9,30.18,NW,315,17.3,17.3,50,0.00,BKN,,0.00,0.0,WeatherDisplay:10.37,2013-04-03 18:47:00,
2013-04-03 14:52:00,43.3,25.9,30.18,NW,315,10.4,10.4,50,0.00,BKN,,0.00,0.0,WeatherDisplay:10.37,2013-04-03 18:52:00,
2013-04-03 14:57:00,43.3,25.9,30.18,WNW,292,10.4,10.4,50,0.00,BKN,,0.00,0.0,WeatherDisplay:10.37,2013-04-03 18:57:00,
2013-04-03 15:02:00,43.3,25.9,30.18,NW,315,13.8,13.8,50,0.00,BKN,,0.00,100.0,WeatherDisplay:10.37,2013-04-03 19:02:00,
2013-04-03 15:07:00,43.3,25.9,30.18,NNW,338,12.8,12.8,50,0.00,BKN,,0.00,400.0,WeatherDisplay:10.37,2013-04-03 19:07:00,
2013-04-03 15:12:00,43.3,25.9,30.18,NNW,338,6.2,6.2,50,0.00,BKN,,0.00,100.0,WeatherDisplay:10.37,2013-04-03 19:12:00,
2013-04-03 15:17:00,43.3,25.9,30.18,NNW,338,10.4,10.4,50,0.00,BKN,,0.00,0.0,WeatherDisplay:10.37,2013-04-03 19:17:00,
2013-04-03 15:22:00,43.3,25.9,30.15,WNW,292,17.3,17.3,50,0.00,BKN,,0.00,400.0,WeatherDisplay:10.37,2013-04-03 19:22:00,
2013-04-03 15:27:00,43.3,25.9,30.15,WNW,292,12.5,12.5,50,0.00,BKN,,0.00,300.0,WeatherDisplay:10.37,2013-04-03 19:27:00,
2013-04-03 15:32:00,43.3,25.9,30.15,NNW,338,10.4,10.4,50,0.00,BKN,,0.00,900.0,WeatherDisplay:10.37,2013-04-03 19:32:00,
2013-04-03 15:37:00,43.3,25.9,30.18,WNW,292,15.2,15.2,50,0.00,BKN,,0.00,100.0,WeatherDisplay:10.37,2013-04-03 19:37:00,
2013-04-03 15:42:00,43.3,25.9,30.18,WNW,292,12.7,12.7,50,0.00,BKN,,0.00,300.0,WeatherDisplay:10.37,2013-04-03 19:42:00,
2013-04-03 15:47:00,43.3,25.9,30.18,WNW,292,12.7,12.7,50,0.00,BKN,,0.00,300.0,WeatherDisplay:10.37,2013-04-03 19:47:00,
2013-04-03 15:52:00,43.3,25.9,30.18,WNW,292,13.8,13.8,50,0.00,BKN,,0.00,300.0,WeatherDisplay:10.37,2013-04-03 19:52:00,
2013-04-03 15:57:00,43.3,25.9,30.18,West,270,23.9,23.9,50,0.00,BKN,,0.00,300.0,WeatherDisplay:10.37,2013-04-03 19:57:00,
2013-04-03 16:02:00,43.3,25.9,30.18,WNW,292,19.9,19.9,50,0.00,FEW,,0.00,300.0,WeatherDisplay:10.37,2013-04-03 20:02:00,
2013-04-03 16:08:00,43.3,25.9,30.18,West,270,18.4,18.4,50,0.00,FEW,,0.00,200.0,WeatherDisplay:10.37,2013-04-03 20:08:00,
2013-04-03 16:13:00,43.3,25.9,30.18,West,270,11.5,13.0,50,0.00,FEW,,0.00,200.0,WeatherDisplay:10.37,2013-04-03 20:13:00,
2013-04-03 16:18:00,43.3,25.9,30.18,WSW,248,21.3,21.3,50,0.00,FEW,,0.00,200.0,WeatherDisplay:10.37,2013-04-03 20:18:00,
2013-04-03 16:23:00,43.3,25.9,30.18,WNW,292,29.9,29.9,50,0.00,FEW,,0.00,300.0,WeatherDisplay:10.37,2013-04-03 20:23:00,
2013-04-03 16:28:00,43.3,25.9,30.18,WNW,292,16.1,16.1,50,0.00,FEW,,0.00,100.0,WeatherDisplay:10.37,2013-04-03 20:28:00,
2013-04-03 16:33:00,43.3,25.9,30.18,WNW,292,17.3,17.3,50,0.00,FEW,,0.00,200.0,WeatherDisplay:10.37,2013-04-03 20:33:00,
2013-04-03 16:38:00,43.3,25.9,30.18,WNW,292,19.6,19.6,50,0.00,FEW,,0.00,0.0,WeatherDisplay:10.37,2013-04-03 20:38:00,
2013-04-03 16:43:00,43.3,25.9,30.18,WNW,292,16.6,16.6,50,0.00,FEW,,0.00,100.0,WeatherDisplay:10.37,2013-04-03 20:43:00,
2013-04-03 16:48:00,43.3,25.9,30.18,WNW,292,25.3,25.3,50,0.00,FEW,,0.00,100.0,WeatherDisplay:10.37,2013-04-03 20:48:00,
2013-04-03 16:53:00,43.3,25.9,30.15,WNW,292,18.7,18.7,50,0.00,FEW,,0.00,200.0,WeatherDisplay:10.37,2013-04-03 20:53:00,
2013-04-03 16:58:00,43.3,25.9,30.15,WNW,292,21.9,21.9,50,0.00,FEW,,0.00,100.0,WeatherDisplay:10.37,2013-04-03 20:58:00,
2013-04-03 17:03:00,43.3,25.9,30.15,WNW,292,16.1,16.1,50,0.00,SCT,,0.00,100.0,WeatherDisplay:10.37,2013-04-03 21:03:00,
2013-04-03 17:08:00,43.3,25.9,30.18,NW,315,17.3,17.3,50,0.00,SCT,,0.00,100.0,WeatherDisplay:10.37,2013-04-03 21:08:00,
2013-04-03 17:13:00,43.3,25.9,30.18,WNW,292,13.8,13.8,50,0.00,SCT,,0.00,100.0,WeatherDisplay:10.37,2013-04-03 21:13:00,
2013-04-03 17:18:00,43.3,25.9,30.18,WNW,292,15.4,15.4,50,0.00,SCT,,0.00,100.0,WeatherDisplay:10.37,2013-04-03 21:18:00,
2013-04-03 17:23:00,43.3,25.9,30.18,West,270,20.7,20.7,50,0.00,SCT,,0.00,100.0,WeatherDisplay:10.37,2013-04-03 21:23:00,
2013-04-03 17:28:00,43.3,25.9,30.18,WNW,292,11.5,11.5,50,0.00,SCT,,0.00,100.0,WeatherDisplay:10.37,2013-04-03 21:28:00,
2013-04-03 17:33:00,43.3,25.9,30.18,WSW,248,15.0,15.0,50,0.00,SCT,,0.00,100.0,WeatherDisplay:10.37,2013-04-03 21:33:00,
2013-04-03 17:38:00,43.3,25.9,30.18,WSW,248,15.0,15.0,50,0.00,SCT,,0.00,100.0,WeatherDisplay:10.37,2013-04-03 21:38:00,
2013-04-03 17:43:00,43.3,25.9,30.18,WNW,292,15.0,15.0,50,0.00,SCT,,0.00,100.0,WeatherDisplay:10.37,2013-04-03 21:43:00,
2013-04-03 17:48:00,43.3,25.9,30.18,WNW,292,19.9,19.9,50,0.00,SCT,,0.00,100.0,WeatherDisplay:10.37,2013-04-03 21:48:00,
2013-04-03 17:53:00,43.3,25.9,30.15,West,270,23.0,23.0,50,0.00,SCT,,0.00,100.0,WeatherDisplay:10.37,2013-04-03 21:53:00,
2013-04-03 17:58:00,43.3,25.9,30.15,West,270,10.4,10.4,50,0.00,SCT,,0.00,0.0,WeatherDisplay:10.37,2013-04-03 21:58:00,
2013-04-03 18:03:00,43.3,25.9,30.15,WNW,292,11.8,11.8,50,0.00,FEW,,0.00,0.0,WeatherDisplay:10.37,2013-04-03 22:03:00,
2013-04-03 18:08:00,43.3,25.9,30.18,WNW,292,19.6,19.6,50,0.00,FEW,,0.00,0.0,WeatherDisplay:10.37,2013-04-03 22:08:00,
2013-04-03 18:13:00,43.3,25.9,30.18,WNW,292,17.3,17.3,50,0.00,FEW,,0.00,0.0,WeatherDisplay:10.37,2013-04-03 22:13:00,
2013-04-03 18:18:00,43.3,25.9,30.18,WNW,292,15.0,15.0,50,0.00,FEW,,0.00,0.0,WeatherDisplay:10.37,2013-04-03 22:18:00,
2013-04-03 18:23:00,43.3,25.9,30.18,WNW,292,17.3,17.3,50,0.00,FEW,,0.00,0.0,WeatherDisplay:10.37,2013-04-03 22:23:00,
2013-04-03 18:28:00,43.3,25.9,30.18,WNW,292,10.4,10.4,50,0.00,FEW,,0.00,0.0,WeatherDisplay:10.37,2013-04-03 22:28:00,
2013-04-03 18:33:00,43.3,25.9,30.18,WNW,292,13.8,13.8,50,0.00,FEW,,0.00,0.0,WeatherDisplay:10.37,2013-04-03 22:33:00,
2013-04-03 18:38:00,43.3,25.9,30.21,WNW,292,12.7,12.7,50,0.00,FEW,,0.00,0.0,WeatherDisplay:10.37,2013-04-03 22:38:00,
2013-04-03 18:43:00,43.3,25.9,30.21,West,270,12.7,12.7,50,0.00,FEW,,0.00,0.0,WeatherDisplay:10.37,2013-04-03 22:43:00,
2013-04-03 18:48:00,43.3,25.9,30.21,WNW,292,18.1,18.1,50,0.00,FEW,,0.00,0.0,WeatherDisplay:10.37,2013-04-03 22:48:00,
2013-04-03 18:53:00,43.3,25.9,30.21,West,270,18.4,18.4,50,0.00,FEW,,0.00,0.0,WeatherDisplay:10.37,2013-04-03 22:53:00,
2013-04-03 18:58:00,43.3,25.9,30.21,WNW,292,17.3,17.3,50,0.00,FEW,,0.00,0.0,WeatherDisplay:10.37,2013-04-03 22:58:00,
2013-04-03 19:03:00,43.3,25.9,30.21,West,270,17.5,17.5,50,0.00,FEW,,0.00,0.0,WeatherDisplay:10.37,2013-04-03 23:03:00,
2013-04-03 19:08:00,43.3,25.9,30.24,WNW,292,17.3,17.3,50,0.00,FEW,,0.00,0.0,WeatherDisplay:10.37,2013-04-03 23:08:00,
2013-04-03 19:13:00,43.3,25.9,30.24,WNW,292,17.3,17.3,50,0.00,FEW,,0.00,0.0,WeatherDisplay:10.37,2013-04-03 23:13:00,
2013-04-03 19:18:00,43.3,25.9,30.24,WNW,292,18.4,18.4,50,0.00,FEW,,0.00,0.0,WeatherDisplay:10.37,2013-04-03 23:18:00,
2013-04-03 19:23:00,43.3,25.9,30.21,West,270,13.8,14.0,50,0.00,FEW,,0.00,0.0,WeatherDisplay:10.37,2013-04-03 23:23:00,
2013-04-03 19:28:00,43.3,25.9,30.21,WNW,292,16.1,16.1,50,0.00,FEW,,0.00,0.0,WeatherDisplay:10.37,2013-04-03 23:28:00,
2013-04-03 19:33:00,43.3,25.9,30.21,WNW,292,12.7,12.7,50,0.00,FEW,,0.00,0.0,WeatherDisplay:10.37,2013-04-03 23:33:00,
2013-04-03 19:38:00,43.3,25.9,30.24,NW,315,12.7,12.7,50,0.00,FEW,,0.00,0.0,WeatherDisplay:10.37,2013-04-03 23:38:00,
2013-04-03 19:43:00,43.3,25.9,30.24,WNW,292,12.7,12.7,50,0.00,FEW,,0.00,0.0,WeatherDisplay:10.37,2013-04-03 23:43:00,
2013-04-03 19:49:00,43.3,25.9,30.24,WNW,292,17.6,17.6,50,0.00,FEW,,0.00,0.0,WeatherDisplay:10.37,2013-04-03 23:49:00,
2013-04-03 19:54:00,43.3,25.9,30.24,West,270,11.5,11.5,50,0.00,FEW,,0.00,0.0,WeatherDisplay:10.37,2013-04-03 23:54:00,
2013-04-03 19:59:00,43.3,25.9,30.24,West,270,12.7,12.7,50,0.00,FEW,,0.00,0.0,WeatherDisplay:10.37,2013-04-03 23:59:00,
2013-04-03 20:04:00,43.3,25.9,30.24,WSW,248,12.3,12.3,50,0.00,FEW,,0.00,0.0,WeatherDisplay:10.37,2013-04-04 00:04:00,
2013-04-03 20:09:00,43.3,25.9,30.24,West,270,17.3,17.3,50,0.00,FEW,,0.00,0.0,WeatherDisplay:10.37,2013-04-04 00:09:00,
2013-04-03 20:14:00,43.3,25.9,30.24,West,270,13.8,13.8,50,0.00,FEW,,0.00,0.0,WeatherDisplay:10.37,2013-04-04 00:14:00,
2013-04-03 20:19:00,43.3,25.9,30.24,WNW,292,19.9,19.9,50,0.00,FEW,,0.00,0.0,WeatherDisplay:10.37,2013-04-04 00:19:00,
2013-04-03 20:24:00,43.3,25.9,30.24,West,270,15.0,15.0,50,0.00,FEW,,0.00,0.0,WeatherDisplay:10.37,2013-04-04 00:24:00,
2013-04-03 20:29:00,43.3,25.9,30.24,West,270,12.7,12.7,50,0.00,FEW,,0.00,0.0,WeatherDisplay:10.37,2013-04-04 00:29:00,
2013-04-03 20:34:00,43.3,25.9,30.24,West,270,17.5,17.5,50,0.00,FEW,,0.00,0.0,WeatherDisplay:10.37,2013-04-04 00:34:00,
2013-04-03 20:39:00,43.3,25.9,30.24,West,270,15.0,15.0,50,0.00,FEW,,0.00,0.0,WeatherDisplay:10.37,2013-04-04 00:39:00,
2013-04-03 20:44:00,43.3,25.9,30.24,West,270,15.0,15.0,50,0.00,FEW,,0.00,0.0,WeatherDisplay:10.37,2013-04-04 00:44:00,
2013-04-03 20:49:00,43.3,25.9,30.24,WNW,292,12.7,12.7,50,0.00,FEW,,0.00,0.0,WeatherDisplay:10.37,2013-04-04 00:49:00,
2013-04-03 20:54:00,43.3,25.9,30.27,WNW,292,17.3,17.3,50,0.00,FEW,,0.00,0.0,WeatherDisplay:10.37,2013-04-04 00:54:00,
2013-04-03 20:59:00,43.3,25.9,30.27,West,270,13.8,13.8,50,0.00,FEW,,0.00,0.0,WeatherDisplay:10.37,2013-04-04 00:59:00,
2013-04-03 21:04:00,43.3,25.9,30.27,West,270,13.2,13.2,50,0.00,CLR,,0.00,0.0,WeatherDisplay:10.37,2013-04-04 01:04:00,
2013-04-03 21:09:00,43.3,25.9,30.27,West,270,15.0,15.0,50,0.00,CLR,,0.00,0.0,WeatherDisplay:10.37,2013-04-04 01:09:00,
2013-04-03 21:14:00,43.3,25.9,30.27,West,270,17.3,17.3,50,0.00,CLR,,0.00,0.0,WeatherDisplay:10.37,2013-04-04 01:14:00,
2013-04-03 21:20:00,43.3,25.9,30.27,WNW,292,17.3,17.3,50,0.00,CLR,,0.00,0.0,WeatherDisplay:10.37,2013-04-04 01:20:00,
2013-04-03 21:25:00,43.3,25.9,30.30,West,270,16.1,16.1,50,0.00,CLR,,0.00,0.0,WeatherDisplay:10.37,2013-04-04 01:25:00,
2013-04-03 21:30:00,43.3,25.9,30.30,West,270,15.9,15.9,50,0.00,CLR,,0.00,0.0,WeatherDisplay:10.37,2013-04-04 01:30:00,
2013-04-03 21:35:00,43.3,25.9,30.30,West,270,12.7,12.7,50,0.00,CLR,,0.00,0.0,WeatherDisplay:10.37,2013-04-04 01:35:00,
2013-04-03 21:40:00,43.3,25.9,30.30,WSW,248,17.6,17.6,50,0.00,CLR,,0.00,0.0,WeatherDisplay:10.37,2013-04-04 01:40:00,
2013-04-03 21:45:00,43.3,25.9,30.30,West,270,15.0,15.0,50,0.00,CLR,,0.00,0.0,WeatherDisplay:10.37,2013-04-04 01:45:00,
2013-04-03 21:50:00,43.3,25.9,30.30,WNW,292,12.7,12.7,50,0.00,CLR,,0.00,0.0,WeatherDisplay:10.37,2013-04-04 01:50:00,
2013-04-03 21:55:00,43.3,25.9,30.30,West,270,19.6,19.6,50,0.00,CLR,,0.00,0.0,WeatherDisplay:10.37,2013-04-04 01:55:00,
2013-04-03 22:00:00,43.3,25.9,30.30,West,270,17.3,17.3,50,0.00,CLR,,0.00,0.0,WeatherDisplay:10.37,2013-04-04 02:00:00,
2013-04-03 22:05:00,43.3,25.9,30.30,WNW,292,17.3,17.3,50,0.00,FEW,,0.00,0.0,WeatherDisplay:10.37,2013-04-04 02:05:00,
2013-04-03 22:10:00,43.3,25.9,30.30,West,270,16.3,16.3,50,0.00,FEW,,0.00,0.0,WeatherDisplay:10.37,2013-04-04 02:10:00,
2013-04-03 22:15:00,43.3,25.9,30.30,WSW,248,11.5,11.5,50,0.00,FEW,,0.00,0.0,WeatherDisplay:10.37,2013-04-04 02:15:00,
2013-04-03 22:20:00,43.3,25.9,30.30,West,270,12.7,12.7,50,0.00,FEW,,0.00,0.0,WeatherDisplay:10.37,2013-04-04 02:20:00,
2013-04-03 22:25:00,43.3,25.9,30.30,WNW,292,11.5,11.5,50,0.00,FEW,,0.00,0.0,WeatherDisplay:10.37,2013-04-04 02:25:00,
2013-04-03 22:30:00,43.3,25.9,30.30,West,270,11.5,11.5,50,0.00,FEW,,0.00,0.0,WeatherDisplay:10.37,2013-04-04 02:30:00,
2013-04-03 22:35:00,43.3,25.9,30.30,West,270,17.3,17.3,50,0.00,FEW,,0.00,0.0,WeatherDisplay:10.37,2013-04-04 02:35:00,
2013-04-03 22:40:00,43.3,25.9,30.30,WNW,292,15.0,15.0,50,0.00,FEW,,0.00,0.0,WeatherDisplay:10.37,2013-04-04 02:40:00,
2013-04-03 22:45:00,43.3,25.9,30.30,West,270,15.0,15.0,50,0.00,FEW,,0.00,0.0,WeatherDisplay:10.37,2013-04-04 02:45:00,
2013-04-03 22:50:00,43.3,25.9,30.30,West,270,17.3,17.3,50,0.00,FEW,,0.00,0.0,WeatherDisplay:10.37,2013-04-04 02:50:00,
2013-04-03 22:55:00,43.3,25.9,30.30,WNW,292,17.3,17.3,50,0.00,FEW,,0.00,0.0,WeatherDisplay:10.37,2013-04-04 02:55:00,
2013-04-03 23:00:00,43.3,25.9,30.30,WSW,248,17.3,17.3,50,0.00,FEW,,0.00,0.0,WeatherDisplay:10.37,2013-04-04 03:00:00,
2013-04-03 23:05:00,43.3,25.9,30.30,West,270,16.6,16.6,50,0.00,CLR,,0.00,0.0,WeatherDisplay:10.37,2013-04-04 03:05:00,
2013-04-03 23:10:00,43.3,25.9,30.30,West,270,13.8,13.8,50,0.00,CLR,,0.00,0.0,WeatherDisplay:10.37,2013-04-04 03:10:00,
2013-04-03 23:15:00,43.3,25.9,30.30,WNW,292,12.8,12.8,50,0.00,CLR,,0.00,0.0,WeatherDisplay:10.37,2013-04-04 03:15:00,
2013-04-03 23:20:00,43.3,25.9,30.30,West,270,15.0,15.0,50,0.00,CLR,,0.00,0.0,WeatherDisplay:10.37,2013-04-04 03:20:00,
2013-04-03 23:25:00,43.3,25.9,30.30,West,270,13.8,13.8,50,0.00,CLR,,0.00,0.0,WeatherDisplay:10.37,2013-04-04 03:25:00,
2013-04-03 23:30:00,43.3,25.9,30.30,West,270,10.2,10.2,50,0.00,CLR,,0.00,0.0,WeatherDisplay:10.37,2013-04-04 03:30:00,
2013-04-03 23:35:00,43.3,25.9,30.30,WSW,248,13.0,13.0,50,0.00,CLR,,0.00,0.0,WeatherDisplay:10.37,2013-04-04 03:35:00,
2013-04-03 23:40:00,43.3,25.9,30.30,WSW,248,11.5,11.5,50,0.00,CLR,,0.00,0.0,WeatherDisplay:10.37,2013-04-04 03:40:00,
2013-04-03 23:45:00,43.3,25.9,30.30,WSW,248,11.5,11.5,50,0.00,CLR,,0.00,0.0,WeatherDisplay:10.37,2013-04-04 03:45:00,
2013-04-03 23:50:00,43.3,25.9,30.30,West,270,12.7,12.7,50,0.00,CLR,,0.00,0.0,WeatherDisplay:10.37,2013-04-04 03:50:00,
2013-04-03 23:55:00,43.3,25.9,30.30,West,270,11.5,11.5,50,0.00,CLR,,0.00,0.0,WeatherDisplay:10.37,2013-04-04 03:55:00,